Overview Statistics Trail Chart Weather Telemetry Raw packets
 

This is the latest recevied weather packets stored in our database for station/object EA2AFZ-W. If no packets are shown the sender has not sent any weather packets the latest 10 day(s).

<< 5 6 7 8 9 10 11 >>
Time Temp. Humidity Pressure Rain* Wind** Luminosity Snow
1788311726 17.78° C 81% 1023 hPa 0 mm - - -
1788309924 17.78° C 77% 1023 hPa 0 mm - - -
1788308122 18.33° C 69% 1023 hPa 0 mm - - -
1788306319 18.89° C 68% 1023 hPa 0 mm - - -
1788304516 19.44° C 68% 1023 hPa 0 mm - - -
1788302714 19.44° C 67% 1023 hPa 0 mm - - -
1788300911 19.44° C 67% 1023 hPa 0 mm - - -
1788299110 19.44° C 65% 1023 hPa 0 mm - - -
1788297307 19.44° C 64% 1023 hPa 0 mm - - -
1788295565 20° C 61% 1023 hPa 0 mm - - -
1788293762 21.67° C 68% 1022 hPa 0 mm - - -
1788291961 21.67° C 68% 1022 hPa 0 mm - - -
1788290158 21.67° C 73% 1022 hPa 0 mm - - -
1788288356 22.78° C 62% 1022 hPa 0 mm - - -
1788286553 22.78° C 58% 1021 hPa 0 mm - - -
1788284750 22.78° C 58% 1021 hPa 0 mm - - -
1788282948 23.33° C 61% 1021 hPa 0 mm - - -
1788281146 23.33° C 58% 1021 hPa 0 mm - - -
1788279344 22.78° C 57% 1020 hPa 0 mm - - -
1788277541 23.33° C 56% 1020 hPa 0 mm - - -
1788275739 23.33° C 55% 1020 hPa 0 mm - - -
1788273936 23.33° C 57% 1020 hPa 0 mm - - -
1788272135 23.89° C 61% 1021 hPa 0 mm - - -
1788270332 23.33° C 64% 1021 hPa 0 mm - - -
1788268530 23.33° C 63% 1021 hPa 0 mm - - -

* Rain latest hour (hover to see other rain measurements)
** Current wind speed in m/s (hover to see current wind gust speed)